Time,TemperatureF,DewpointF,PressureIn,WindDirection,WindDirectionDegrees,WindSpeedMPH,WindSpeedGustMPH,Humidity,HourlyPrecipIn,Conditions,Clouds,dailyrainin,SoftwareType,DateUTC
2013-06-23 00:01:00,71.3,61.0,29.97,WSW,242,0.0,0.0,70,0.00,,,0.00,WeatherCatV1.11B39,2013-06-23 04:01:00,
2013-06-23 00:06:00,71.2,60.5,29.97,West,263,0.0,0.0,69,0.00,,,0.00,WeatherCatV1.11B39,2013-06-23 04:06:00,
2013-06-23 00:11:00,71.2,60.5,29.97,WSW,237,0.0,1.0,69,0.00,,,0.00,WeatherCatV1.11B39,2013-06-23 04:11:00,
2013-06-23 00:16:00,71.1,60.4,29.97,WNW,287,0.0,7.0,69,0.00,,,0.00,WeatherCatV1.11B39,2013-06-23 04:16:00,
2013-06-23 00:21:00,71.1,60.4,29.97,WSW,249,5.0,6.0,69,0.00,,,0.00,WeatherCatV1.11B39,2013-06-23 04:21:00,
2013-06-23 00:26:00,71.1,60.4,29.97,WSW,255,6.0,7.0,69,0.00,,,0.00,WeatherCatV1.11B39,2013-06-23 04:26:00,
2013-06-23 00:31:00,71.3,60.2,29.97,WSW,257,5.0,11.0,68,0.00,,,0.00,WeatherCatV1.11B39,2013-06-23 04:31:00,
2013-06-23 00:36:00,71.2,60.1,29.97,SW,235,4.0,6.0,68,0.00,,,0.00,WeatherCatV1.11B39,2013-06-23 04:36:00,
2013-06-23 00:41:00,71.2,60.1,29.96,WSW,251,4.0,8.0,68,0.00,,,0.00,WeatherCatV1.11B39,2013-06-23 04:41:00,
2013-06-23 00:46:00,71.3,60.6,29.96,WNW,294,0.0,4.0,69,0.00,,,0.00,WeatherCatV1.11B39,2013-06-23 04:46:00,
2013-06-23 00:51:00,71.2,60.1,29.96,West,265,4.0,6.0,68,0.00,,,0.00,WeatherCatV1.11B39,2013-06-23 04:51:00,
2013-06-23 00:56:00,71.2,59.7,29.96,West,270,5.0,8.0,67,0.00,,,0.00,WeatherCatV1.11B39,2013-06-23 04:56:00,
2013-06-23 01:01:00,71.4,59.9,29.96,WSW,250,0.0,7.0,67,0.00,,,0.00,WeatherCatV1.11B39,2013-06-23 05:01:00,
2013-06-23 01:06:00,71.4,59.9,29.96,WNW,285,0.0,6.0,67,0.00,,,0.00,WeatherCatV1.11B39,2013-06-23 05:06:00,
2013-06-23 01:11:00,71.2,59.7,29.96,WSW,255,4.0,9.0,67,0.00,,,0.00,WeatherCatV1.11B39,2013-06-23 05:11:00,
2013-06-23 01:16:00,71.3,59.8,29.96,West,277,4.0,8.0,67,0.00,,,0.00,WeatherCatV1.11B39,2013-06-23 05:16:00,
2013-06-23 01:21:00,71.2,59.7,29.96,WSW,251,4.0,4.0,67,0.00,,,0.00,WeatherCatV1.11B39,2013-06-23 05:21:00,
2013-06-23 01:26:00,71.2,59.7,29.97,WSW,249,6.0,6.0,67,0.00,,,0.00,WeatherCatV1.11B39,2013-06-23 05:26:00,
2013-06-23 01:31:00,71.3,59.3,29.97,West,267,2.0,6.0,66,0.00,,,0.00,WeatherCatV1.11B39,2013-06-23 05:31:00,
2013-06-23 01:36:00,71.2,59.2,29.97,WSW,243,3.0,6.0,66,0.00,,,0.00,WeatherCatV1.11B39,2013-06-23 05:36:00,
2013-06-23 01:41:00,71.1,59.6,29.96,WSW,245,4.0,7.0,67,0.00,,,0.00,WeatherCatV1.11B39,2013-06-23 05:41:00,
2013-06-23 01:46:00,70.9,59.8,29.96,WSW,244,4.0,5.0,68,0.00,,,0.00,WeatherCatV1.11B39,2013-06-23 05:46:00,
2013-06-23 01:51:00,70.6,59.1,29.97,WSW,255,0.0,1.0,67,0.00,,,0.00,WeatherCatV1.11B39,2013-06-23 05:51:00,
2013-06-23 01:56:00,70.4,59.7,29.95,WNW,283,7.0,8.0,69,0.00,,,0.00,WeatherCatV1.11B39,2013-06-23 05:56:00,
2013-06-23 02:01:00,70.4,59.7,29.96,WSW,239,3.0,7.0,69,0.00,,,0.00,WeatherCatV1.11B39,2013-06-23 06:01:00,
2013-06-23 02:06:00,70.4,60.1,29.96,WSW,245,2.0,5.0,70,0.00,,,0.00,WeatherCatV1.11B39,2013-06-23 06:06:00,
2013-06-23 02:11:00,70.2,59.9,29.95,WSW,246,2.0,6.0,70,0.00,,,0.00,WeatherCatV1.11B39,2013-06-23 06:11:00,
2013-06-23 02:16:00,70.3,59.6,29.95,WSW,242,3.0,6.0,69,0.00,,,0.00,WeatherCatV1.11B39,2013-06-23 06:16:00,
2013-06-23 02:21:00,70.2,59.1,29.95,West,264,3.0,7.0,68,0.00,,,0.00,WeatherCatV1.11B39,2013-06-23 06:21:00,
2013-06-23 02:26:00,70.2,59.5,29.94,WNW,297,5.0,5.0,69,0.00,,,0.00,WeatherCatV1.11B39,2013-06-23 06:26:00,
2013-06-23 02:31:00,70.1,59.4,29.94,WNW,297,4.0,6.0,69,0.00,,,0.00,WeatherCatV1.11B39,2013-06-23 06:31:00,
2013-06-23 02:36:00,70.1,59.4,29.94,WSW,241,0.0,5.0,69,0.00,,,0.00,WeatherCatV1.11B39,2013-06-23 06:36:00,
2013-06-23 02:41:00,70.1,59.8,29.94,WSW,244,0.0,5.0,70,0.00,,,0.00,WeatherCatV1.11B39,2013-06-23 06:41:00,
2013-06-23 02:46:00,69.9,59.3,29.94,WSW,244,0.0,1.0,69,0.00,,,0.00,WeatherCatV1.11B39,2013-06-23 06:46:00,
2013-06-23 02:51:00,69.9,59.7,29.93,WSW,252,0.0,0.0,70,0.00,,,0.00,WeatherCatV1.11B39,2013-06-23 06:51:00,
2013-06-23 02:56:00,69.9,59.3,29.94,SW,236,0.0,0.0,69,0.00,,,0.00,WeatherCatV1.11B39,2013-06-23 06:56:00,
2013-06-23 03:01:00,69.8,58.7,29.93,WSW,238,0.0,0.0,68,0.00,,,0.00,WeatherCatV1.11B39,2013-06-23 07:01:00,
2013-06-23 03:06:00,69.7,58.7,29.94,SW,235,0.0,0.0,68,0.00,,,0.00,WeatherCatV1.11B39,2013-06-23 07:06:00,
2013-06-23 03:11:00,69.7,58.7,29.94,SW,236,0.0,0.0,68,0.00,,,0.00,WeatherCatV1.11B39,2013-06-23 07:11:00,
2013-06-23 03:16:00,69.7,58.7,29.93,SW,236,0.0,0.0,68,0.00,,,0.00,WeatherCatV1.11B39,2013-06-23 07:16:00,
2013-06-23 03:21:00,69.6,58.6,29.94,SW,235,0.0,0.0,68,0.00,,,0.00,WeatherCatV1.11B39,2013-06-23 07:21:00,
2013-06-23 03:26:00,69.4,58.8,29.93,SW,235,0.0,0.0,69,0.00,,,0.00,WeatherCatV1.11B39,2013-06-23 07:26:00,
2013-06-23 03:31:00,69.3,59.1,29.94,SW,235,0.0,0.0,70,0.00,,,0.00,WeatherCatV1.11B39,2013-06-23 07:31:00,
2013-06-23 03:36:00,69.3,59.9,29.93,SW,235,0.0,0.0,72,0.00,,,0.00,WeatherCatV1.11B39,2013-06-23 07:36:00,
2013-06-23 03:41:00,68.9,60.3,29.93,SW,235,0.0,0.0,74,0.00,,,0.00,WeatherCatV1.11B39,2013-06-23 07:41:00,
2013-06-23 03:46:00,68.6,60.3,29.93,SW,235,0.0,0.0,75,0.00,,,0.00,WeatherCatV1.11B39,2013-06-23 07:46:00,
2013-06-23 03:51:00,68.3,60.1,29.93,SW,235,0.0,0.0,75,0.00,,,0.00,WeatherCatV1.11B39,2013-06-23 07:51:00,
2013-06-23 03:56:00,68.1,59.5,29.92,SW,235,0.0,0.0,74,0.00,,,0.00,WeatherCatV1.11B39,2013-06-23 07:56:00,
2013-06-23 04:01:00,67.8,59.9,29.93,SW,235,0.0,0.0,76,0.00,,,0.00,WeatherCatV1.11B39,2013-06-23 08:01:00,
2013-06-23 04:06:00,67.4,59.2,29.93,SW,236,0.0,0.0,75,0.00,,,0.00,WeatherCatV1.11B39,2013-06-23 08:06:00,
2013-06-23 04:11:00,67.2,59.0,29.93,SW,235,0.0,0.0,75,0.00,,,0.00,WeatherCatV1.11B39,2013-06-23 08:11:00,
2013-06-23 04:16:00,67.0,58.8,29.92,SW,236,0.0,0.0,75,0.00,,,0.00,WeatherCatV1.11B39,2013-06-23 08:16:00,
2013-06-23 04:21:00,67.1,59.3,29.93,SW,235,0.0,0.0,76,0.00,,,0.00,WeatherCatV1.11B39,2013-06-23 08:21:00,
2013-06-23 04:26:00,67.1,59.6,29.93,SW,236,0.0,0.0,77,0.00,,,0.00,WeatherCatV1.11B39,2013-06-23 08:26:00,
2013-06-23 04:31:00,67.1,60.0,29.93,SW,235,0.0,0.0,78,0.00,,,0.00,WeatherCatV1.11B39,2013-06-23 08:31:00,
2013-06-23 04:36:00,66.6,58.8,29.93,SW,235,0.0,0.0,76,0.00,,,0.00,WeatherCatV1.11B39,2013-06-23 08:36:00,
2013-06-23 04:41:00,66.3,58.5,29.92,SW,235,0.0,0.0,76,0.00,,,0.00,WeatherCatV1.11B39,2013-06-23 08:41:00,
2013-06-23 04:46:00,65.9,58.1,29.93,SW,236,0.0,0.0,76,0.00,,,0.00,WeatherCatV1.11B39,2013-06-23 08:46:00,
2013-06-23 04:51:00,66.0,58.2,29.93,SW,236,0.0,0.0,76,0.00,,,0.00,WeatherCatV1.11B39,2013-06-23 08:51:00,
2013-06-23 04:56:00,65.9,58.5,29.92,SW,235,0.0,0.0,77,0.00,,,0.00,WeatherCatV1.11B39,2013-06-23 08:56:00,
2013-06-23 05:01:00,65.8,58.4,29.93,SW,236,0.0,0.0,77,0.00,,,0.00,WeatherCatV1.11B39,2013-06-23 09:01:00,
2013-06-23 05:06:00,65.6,58.2,29.92,SW,235,0.0,0.0,77,0.00,,,0.00,WeatherCatV1.11B39,2013-06-23 09:06:00,
2013-06-23 05:11:00,65.5,58.5,29.92,SW,235,0.0,0.0,78,0.00,,,0.00,WeatherCatV1.11B39,2013-06-23 09:11:00,
2013-06-23 05:16:00,65.5,59.2,29.92,SW,235,0.0,0.0,80,0.00,,,0.00,WeatherCatV1.11B39,2013-06-23 09:16:00,
2013-06-23 05:21:00,65.5,59.2,29.93,SW,235,0.0,0.0,80,0.00,,,0.00,WeatherCatV1.11B39,2013-06-23 09:21:00,
2013-06-23 05:26:00,65.5,59.2,29.93,SW,236,0.0,0.0,80,0.00,,,0.00,WeatherCatV1.11B39,2013-06-23 09:26:00,
2013-06-23 05:31:00,65.2,59.2,29.92,SW,235,0.0,0.0,81,0.00,,,0.00,WeatherCatV1.11B39,2013-06-23 09:31:00,
2013-06-23 05:36:00,65.0,59.0,29.93,SW,235,0.0,0.0,81,0.00,,,0.00,WeatherCatV1.11B39,2013-06-23 09:36:00,
2013-06-23 05:41:00,64.8,58.8,29.93,SW,236,0.0,0.0,81,0.00,,,0.00,WeatherCatV1.11B39,2013-06-23 09:41:00,
2013-06-23 05:46:00,64.7,59.1,29.93,SW,235,0.0,0.0,82,0.00,,,0.00,WeatherCatV1.11B39,2013-06-23 09:46:00,
2013-06-23 05:51:00,64.5,59.2,29.93,SW,235,0.0,0.0,83,0.00,,,0.00,WeatherCatV1.11B39,2013-06-23 09:51:00,
2013-06-23 05:56:00,64.5,59.6,29.93,SW,235,0.0,0.0,84,0.00,,,0.00,WeatherCatV1.11B39,2013-06-23 09:56:00,
2013-06-23 06:01:00,64.5,59.2,29.93,SW,235,0.0,0.0,83,0.00,,,0.00,WeatherCatV1.11B39,2013-06-23 10:01:00,
2013-06-23 06:06:00,64.5,59.6,29.93,SW,235,0.0,0.0,84,0.00,,,0.00,WeatherCatV1.11B39,2013-06-23 10:06:00,
2013-06-23 06:11:00,64.5,59.2,29.92,SW,235,0.0,0.0,83,0.00,,,0.00,WeatherCatV1.11B39,2013-06-23 10:11:00,
2013-06-23 06:16:00,64.7,59.7,29.93,SW,235,0.0,0.0,84,0.00,,,0.00,WeatherCatV1.11B39,2013-06-23 10:16:00,
2013-06-23 06:21:00,64.9,59.9,29.93,SW,235,0.0,0.0,84,0.00,,,0.00,WeatherCatV1.11B39,2013-06-23 10:21:00,
2013-06-23 06:26:00,65.2,60.2,29.93,SW,235,0.0,0.0,84,0.00,,,0.00,WeatherCatV1.11B39,2013-06-23 10:26:00,
2013-06-23 06:31:00,65.5,60.9,29.93,SW,236,0.0,0.0,85,0.00,,,0.00,WeatherCatV1.11B39,2013-06-23 10:31:00,
2013-06-23 06:36:00,66.0,61.7,29.93,SW,235,0.0,0.0,86,0.00,,,0.00,WeatherCatV1.11B39,2013-06-23 10:36:00,
2013-06-23 06:41:00,66.3,61.3,29.93,SW,235,0.0,0.0,84,0.00,,,0.00,WeatherCatV1.11B39,2013-06-23 10:41:00,
2013-06-23 06:46:00,66.8,61.1,29.93,SW,235,0.0,0.0,82,0.00,,,0.00,WeatherCatV1.11B39,2013-06-23 10:46:00,
2013-06-23 06:51:00,67.1,60.4,29.93,SW,235,0.0,0.0,79,0.00,,,0.00,WeatherCatV1.11B39,2013-06-23 10:51:00,
2013-06-23 06:56:00,67.3,60.2,29.93,SW,235,0.0,0.0,78,0.00,,,0.00,WeatherCatV1.11B39,2013-06-23 10:56:00,
2013-06-23 07:01:00,67.6,60.5,29.93,SW,235,0.0,0.0,78,0.00,,,0.00,WeatherCatV1.11B39,2013-06-23 11:01:00,
2013-06-23 07:06:00,67.8,60.7,29.93,SW,235,0.0,0.0,78,0.00,,,0.00,WeatherCatV1.11B39,2013-06-23 11:06:00,
2013-06-23 07:11:00,67.9,60.4,29.94,SW,236,0.0,0.0,77,0.00,,,0.00,WeatherCatV1.11B39,2013-06-23 11:11:00,
2013-06-23 07:16:00,68.1,61.0,29.94,SW,227,0.0,0.0,78,0.00,,,0.00,WeatherCatV1.11B39,2013-06-23 11:16:00,
2013-06-23 07:21:00,68.3,61.2,29.94,SW,227,0.0,0.0,78,0.00,,,0.00,WeatherCatV1.11B39,2013-06-23 11:21:00,
2013-06-23 07:26:00,68.3,60.8,29.94,SW,227,0.0,0.0,77,0.00,,,0.00,WeatherCatV1.11B39,2013-06-23 11:26:00,
2013-06-23 07:31:00,68.4,60.5,29.94,SW,227,0.0,0.0,76,0.00,,,0.00,WeatherCatV1.11B39,2013-06-23 11:31:00,
2013-06-23 07:36:00,68.6,60.7,29.94,WSW,238,0.0,0.0,76,0.00,,,0.00,WeatherCatV1.11B39,2013-06-23 11:36:00,
2013-06-23 07:41:00,68.9,61.0,29.95,SW,236,0.0,0.0,76,0.00,,,0.00,WeatherCatV1.11B39,2013-06-23 11:41:00,
2013-06-23 07:46:00,69.1,61.2,29.94,SW,236,0.0,0.0,76,0.00,,,0.00,WeatherCatV1.11B39,2013-06-23 11:46:00,
2013-06-23 07:51:00,69.2,61.3,29.95,SW,236,0.0,0.0,76,0.00,,,0.00,WeatherCatV1.11B39,2013-06-23 11:51:00,
2013-06-23 07:56:00,69.4,61.5,29.95,SW,236,0.0,0.0,76,0.00,,,0.00,WeatherCatV1.11B39,2013-06-23 11:56:00,
2013-06-23 08:01:00,69.6,61.7,29.95,SW,236,0.0,0.0,76,0.00,,,0.00,WeatherCatV1.11B39,2013-06-23 12:01:00,
2013-06-23 08:06:00,69.7,61.8,29.95,SW,236,0.0,0.0,76,0.00,,,0.00,WeatherCatV1.11B39,2013-06-23 12:06:00,
2013-06-23 08:11:00,70.1,61.8,29.95,SW,236,0.0,0.0,75,0.00,,,0.00,WeatherCatV1.11B39,2013-06-23 12:11:00,
2013-06-23 08:16:00,70.2,62.3,29.95,SW,236,0.0,0.0,76,0.00,,,0.00,WeatherCatV1.11B39,2013-06-23 12:16:00,
2013-06-23 08:21:00,70.4,62.5,29.95,SW,236,0.0,0.0,76,0.00,,,0.00,WeatherCatV1.11B39,2013-06-23 12:21:00,
2013-06-23 08:26:00,70.9,62.9,29.95,SW,236,0.0,0.0,76,0.00,,,0.00,WeatherCatV1.11B39,2013-06-23 12:26:00,
2013-06-23 08:31:00,70.9,62.9,29.94,SW,236,0.0,0.0,76,0.00,,,0.00,WeatherCatV1.11B39,2013-06-23 12:31:00,
2013-06-23 08:36:00,71.1,63.1,29.95,SW,236,0.0,0.0,76,0.00,,,0.00,WeatherCatV1.11B39,2013-06-23 12:36:00,
2013-06-23 08:41:00,71.4,63.4,29.95,SW,236,0.0,0.0,76,0.00,,,0.00,WeatherCatV1.11B39,2013-06-23 12:41:00,
2013-06-23 08:46:00,71.7,63.0,29.94,SW,236,0.0,0.0,74,0.00,,,0.00,WeatherCatV1.11B39,2013-06-23 12:46:00,
2013-06-23 08:51:00,72.3,63.1,29.95,WSW,238,0.0,0.0,73,0.00,,,0.00,WeatherCatV1.11B39,2013-06-23 12:51:00,
2013-06-23 08:56:00,72.6,63.8,29.94,SW,236,0.0,0.0,74,0.00,,,0.00,WeatherCatV1.11B39,2013-06-23 12:56:00,
2013-06-23 09:01:00,73.0,64.2,29.94,SW,236,0.0,0.0,74,0.00,,,0.00,WeatherCatV1.11B39,2013-06-23 13:01:00,
2013-06-23 09:06:00,73.1,64.3,29.94,WSW,239,0.0,0.0,74,0.00,,,0.00,WeatherCatV1.11B39,2013-06-23 13:06:00,
2013-06-23 09:11:00,73.5,65.1,29.94,SW,228,0.0,0.0,75,0.00,,,0.00,WeatherCatV1.11B39,2013-06-23 13:11:00,
2013-06-23 09:16:00,74.0,65.2,29.94,West,260,6.0,9.0,74,0.00,,,0.00,WeatherCatV1.11B39,2013-06-23 13:16:00,
2013-06-23 09:21:00,74.6,65.0,29.94,WNW,283,2.0,8.0,72,0.00,,,0.00,WeatherCatV1.11B39,2013-06-23 13:21:00,
2013-06-23 09:26:00,74.8,65.5,29.94,WSW,243,4.0,7.0,73,0.00,,,0.00,WeatherCatV1.11B39,2013-06-23 13:26:00,
2013-06-23 09:31:00,75.3,66.0,29.94,WSW,241,2.0,3.0,73,0.00,,,0.00,WeatherCatV1.11B39,2013-06-23 13:31:00,
2013-06-23 09:36:00,75.9,66.6,29.93,WSW,247,0.0,1.0,73,0.00,,,0.00,WeatherCatV1.11B39,2013-06-23 13:36:00,
2013-06-23 09:41:00,76.1,66.0,29.93,WSW,247,4.0,7.0,71,0.00,,,0.00,WeatherCatV1.11B39,2013-06-23 13:41:00,
2013-06-23 09:46:00,76.2,66.1,29.93,WSW,247,0.0,0.0,71,0.00,,,0.00,WeatherCatV1.11B39,2013-06-23 13:46:00,
2013-06-23 09:51:00,76.3,66.2,29.93,WSW,253,3.0,6.0,71,0.00,,,0.00,WeatherCatV1.11B39,2013-06-23 13:51:00,
2013-06-23 09:56:00,76.4,66.3,29.92,WSW,244,3.0,5.0,71,0.00,,,0.00,WeatherCatV1.11B39,2013-06-23 13:56:00,
2013-06-23 10:01:00,76.8,67.1,29.92,West,274,2.0,6.0,72,0.00,,,0.00,WeatherCatV1.11B39,2013-06-23 14:01:00,
2013-06-23 10:06:00,77.2,67.0,29.92,WSW,242,0.0,0.0,71,0.00,,,0.00,WeatherCatV1.11B39,2013-06-23 14:06:00,
2013-06-23 10:11:00,77.7,67.1,29.92,WSW,258,0.0,1.0,70,0.00,,,0.00,WeatherCatV1.11B39,2013-06-23 14:11:00,
2013-06-23 10:16:00,78.0,67.4,29.92,West,262,0.0,0.0,70,0.00,,,0.00,WeatherCatV1.11B39,2013-06-23 14:16:00,
2013-06-23 10:21:00,78.4,67.4,29.92,WSW,248,6.0,7.0,69,0.00,,,0.00,WeatherCatV1.11B39,2013-06-23 14:21:00,
2013-06-23 10:26:00,78.7,67.7,29.92,West,270,2.0,8.0,69,0.00,,,0.00,WeatherCatV1.11B39,2013-06-23 14:26:00,
2013-06-23 10:31:00,78.9,67.4,29.92,WSW,251,3.0,8.0,68,0.00,,,0.00,WeatherCatV1.11B39,2013-06-23 14:31:00,
2013-06-23 10:36:00,79.5,68.8,29.92,WSW,245,0.0,5.0,70,0.00,,,0.00,WeatherCatV1.11B39,2013-06-23 14:36:00,
2013-06-23 10:41:00,79.9,68.4,29.92,West,263,6.0,6.0,68,0.00,,,0.00,WeatherCatV1.11B39,2013-06-23 14:41:00,
2013-06-23 10:46:00,80.4,68.8,29.92,WSW,256,0.0,0.0,68,0.00,,,0.00,WeatherCatV1.11B39,2013-06-23 14:46:00,
2013-06-23 10:51:00,81.0,69.0,29.92,NNW,332,5.0,6.0,67,0.00,,,0.00,WeatherCatV1.11B39,2013-06-23 14:51:00,
2013-06-23 10:56:00,81.1,68.2,29.92,WNW,298,5.0,7.0,65,0.00,,,0.00,WeatherCatV1.11B39,2013-06-23 14:56:00,
2013-06-23 11:01:00,81.4,68.5,29.92,NW,311,0.0,5.0,65,0.00,,,0.00,WeatherCatV1.11B39,2013-06-23 15:01:00,
2013-06-23 11:06:00,81.3,67.5,29.92,NW,305,4.0,8.0,63,0.00,,,0.00,WeatherCatV1.11B39,2013-06-23 15:06:00,
2013-06-23 11:11:00,81.5,68.6,29.91,West,264,8.0,8.0,65,0.00,,,0.00,WeatherCatV1.11B39,2013-06-23 15:11:00,
2013-06-23 11:16:00,81.9,68.0,29.92,West,273,4.0,8.0,63,0.00,,,0.00,WeatherCatV1.11B39,2013-06-23 15:16:00,
2013-06-23 11:21:00,82.1,67.8,29.91,WNW,302,4.0,7.0,62,0.00,,,0.00,WeatherCatV1.11B39,2013-06-23 15:21:00,
2013-06-23 11:26:00,82.3,67.9,29.91,West,272,2.0,8.0,62,0.00,,,0.00,WeatherCatV1.11B39,2013-06-23 15:26:00,
2013-06-23 11:31:00,82.3,67.5,29.92,NNW,332,6.0,8.0,61,0.00,,,0.00,WeatherCatV1.11B39,2013-06-23 15:31:00,
2013-06-23 11:36:00,82.3,68.4,29.91,North,355,0.0,6.0,63,0.00,,,0.00,WeatherCatV1.11B39,2013-06-23 15:36:00,
2013-06-23 11:41:00,82.5,68.6,29.91,WSW,254,6.0,6.0,63,0.00,,,0.00,WeatherCatV1.11B39,2013-06-23 15:41:00,
2013-06-23 11:46:00,82.5,67.7,29.91,WSW,250,6.0,7.0,61,0.00,,,0.00,WeatherCatV1.11B39,2013-06-23 15:46:00,
2013-06-23 11:51:00,82.9,68.5,29.91,NNW,343,0.0,8.0,62,0.00,,,0.00,WeatherCatV1.11B39,2013-06-23 15:51:00,
2013-06-23 11:56:00,83.1,68.7,29.91,NW,326,1.0,8.0,62,0.00,,,0.00,WeatherCatV1.11B39,2013-06-23 15:56:00,
2013-06-23 12:01:00,83.3,68.9,29.91,WNW,289,0.0,0.0,62,0.00,,,0.00,WeatherCatV1.11B39,2013-06-23 16:01:00,
2013-06-23 12:06:00,83.6,69.6,29.91,NW,322,7.0,7.0,63,0.00,,,0.00,WeatherCatV1.11B39,2013-06-23 16:06:00,
2013-06-23 12:11:00,83.8,69.4,29.91,NW,306,0.0,2.0,62,0.00,,,0.00,WeatherCatV1.11B39,2013-06-23 16:11:00,
2013-06-23 12:16:00,84.0,70.0,29.91,WSW,254,0.0,0.0,63,0.00,,,0.00,WeatherCatV1.11B39,2013-06-23 16:16:00,
2013-06-23 12:21:00,84.0,68.6,29.91,West,261,5.0,8.0,60,0.00,,,0.00,WeatherCatV1.11B39,2013-06-23 16:21:00,
2013-06-23 12:26:00,84.2,67.8,29.91,WSW,248,4.0,8.0,58,0.00,,,0.00,WeatherCatV1.11B39,2013-06-23 16:26:00,
2013-06-23 12:31:00,84.4,68.5,29.91,WSW,245,6.0,7.0,59,0.00,,,0.00,WeatherCatV1.11B39,2013-06-23 16:31:00,
2013-06-23 12:36:00,84.6,69.2,29.90,WSW,252,0.0,6.0,60,0.00,,,0.00,WeatherCatV1.11B39,2013-06-23 16:36:00,
2013-06-23 12:41:00,84.8,67.8,29.90,WNW,301,0.0,0.0,57,0.00,,,0.00,WeatherCatV1.11B39,2013-06-23 16:41:00,
2013-06-23 12:46:00,85.0,68.0,29.90,WSW,247,0.0,7.0,57,0.00,,,0.00,WeatherCatV1.11B39,2013-06-23 16:46:00,
2013-06-23 12:51:00,85.0,68.5,29.90,WNW,285,0.0,10.0,58,0.00,,,0.00,WeatherCatV1.11B39,2013-06-23 16:51:00,
2013-06-23 12:56:00,85.0,68.0,29.89,WNW,290,1.0,9.0,57,0.00,,,0.00,WeatherCatV1.11B39,2013-06-23 16:56:00,
2013-06-23 12:57:00,85.0,68.0,29.90,West,266,5.0,8.0,57,0.00,,,0.00,WeatherCatV1.11B39,2013-06-23 16:57:00,
2013-06-23 13:01:00,85.0,68.5,29.89,West,265,5.0,8.0,58,0.00,,,0.00,WeatherCatV1.11B39,2013-06-23 17:01:00,
2013-06-23 13:06:00,85.2,68.7,29.89,WSW,248,4.0,8.0,58,0.00,,,0.00,WeatherCatV1.11B39,2013-06-23 17:06:00,
2013-06-23 13:11:00,85.4,69.9,29.89,WSW,252,0.0,0.0,60,0.00,,,0.00,WeatherCatV1.11B39,2013-06-23 17:11:00,
2013-06-23 13:16:00,85.6,68.6,29.89,WSW,257,0.0,7.0,57,0.00,,,0.00,WeatherCatV1.11B39,2013-06-23 17:16:00,
2013-06-23 13:21:00,85.4,68.4,29.88,NW,307,4.0,8.0,57,0.00,,,0.00,WeatherCatV1.11B39,2013-06-23 17:21:00,
2013-06-23 13:26:00,85.6,69.6,29.88,WSW,257,0.0,6.0,59,0.00,,,0.00,WeatherCatV1.11B39,2013-06-23 17:26:00,
2013-06-23 13:31:00,85.6,67.5,29.88,WSW,255,3.0,9.0,55,0.00,,,0.00,WeatherCatV1.11B39,2013-06-23 17:31:00,
2013-06-23 13:36:00,85.6,68.1,29.88,West,264,1.0,8.0,56,0.00,,,0.00,WeatherCatV1.11B39,2013-06-23 17:36:00,
2013-06-23 13:41:00,85.6,69.1,29.88,West,259,2.0,7.0,58,0.00,,,0.00,WeatherCatV1.11B39,2013-06-23 17:41:00,
2013-06-23 13:46:00,85.8,69.3,29.88,WSW,248,6.0,8.0,58,0.00,,,0.00,WeatherCatV1.11B39,2013-06-23 17:46:00,
2013-06-23 13:51:00,85.8,69.8,29.88,West,280,8.0,8.0,59,0.00,,,0.00,WeatherCatV1.11B39,2013-06-23 17:51:00,
2013-06-23 13:56:00,85.8,69.8,29.88,West,267,0.0,1.0,59,0.00,,,0.00,WeatherCatV1.11B39,2013-06-23 17:56:00,
2013-06-23 14:01:00,85.8,69.3,29.88,West,263,4.0,8.0,58,0.00,,,0.00,WeatherCatV1.11B39,2013-06-23 18:01:00,
2013-06-23 14:06:00,85.8,68.8,29.87,WNW,294,5.0,9.0,57,0.00,,,0.00,WeatherCatV1.11B39,2013-06-23 18:06:00,
2013-06-23 14:11:00,86.0,69.5,29.87,West,279,7.0,8.0,58,0.00,,,0.00,WeatherCatV1.11B39,2013-06-23 18:11:00,
2013-06-23 14:16:00,86.0,69.0,29.87,WSW,239,0.0,6.0,57,0.00,,,0.00,WeatherCatV1.11B39,2013-06-23 18:16:00,
2013-06-23 14:21:00,86.2,69.1,29.87,West,272,4.0,10.0,57,0.00,,,0.00,WeatherCatV1.11B39,2013-06-23 18:21:00,
2013-06-23 14:26:00,86.2,69.1,29.87,West,271,5.0,9.0,57,0.00,,,0.00,WeatherCatV1.11B39,2013-06-23 18:26:00,
2013-06-23 14:31:00,86.0,69.0,29.86,WSW,255,5.0,9.0,57,0.00,,,0.00,WeatherCatV1.11B39,2013-06-23 18:31:00,
2013-06-23 14:36:00,86.0,69.5,29.87,WSW,243,3.0,12.0,58,0.00,,,0.00,WeatherCatV1.11B39,2013-06-23 18:36:00,
2013-06-23 14:41:00,86.3,70.2,29.86,WSW,258,5.0,9.0,59,0.00,,,0.00,WeatherCatV1.11B39,2013-06-23 18:41:00,
2013-06-23 14:46:00,86.2,68.6,29.86,West,263,6.0,14.0,56,0.00,,,0.00,WeatherCatV1.11B39,2013-06-23 18:46:00,
2013-06-23 14:51:00,86.2,68.6,29.86,WSW,247,7.0,12.0,56,0.00,,,0.00,WeatherCatV1.11B39,2013-06-23 18:51:00,
2013-06-23 14:56:00,86.2,69.1,29.86,NW,308,10.0,11.0,57,0.00,,,0.00,WeatherCatV1.11B39,2013-06-23 18:56:00,
2013-06-23 15:01:00,86.5,69.4,29.86,SW,236,5.0,12.0,57,0.00,,,0.00,WeatherCatV1.11B39,2013-06-23 19:01:00,
2013-06-23 15:06:00,86.4,68.8,29.86,SW,220,2.0,9.0,56,0.00,,,0.00,WeatherCatV1.11B39,2013-06-23 19:06:00,
2013-06-23 15:11:00,86.5,70.4,29.85,WNW,284,8.0,12.0,59,0.00,,,0.00,WeatherCatV1.11B39,2013-06-23 19:11:00,
2013-06-23 15:16:00,86.5,68.9,29.85,WSW,255,3.0,11.0,56,0.00,,,0.00,WeatherCatV1.11B39,2013-06-23 19:16:00,
2013-06-23 15:21:00,86.6,69.0,29.85,WNW,286,8.0,12.0,56,0.00,,,0.00,WeatherCatV1.11B39,2013-06-23 19:21:00,
2013-06-23 15:26:00,86.5,68.9,29.85,West,271,11.0,12.0,56,0.00,,,0.00,WeatherCatV1.11B39,2013-06-23 19:26:00,
2013-06-23 15:31:00,86.4,68.8,29.85,WSW,244,5.0,10.0,56,0.00,,,0.00,WeatherCatV1.11B39,2013-06-23 19:31:00,
2013-06-23 15:36:00,86.5,68.4,29.85,West,273,9.0,13.0,55,0.00,,,0.00,WeatherCatV1.11B39,2013-06-23 19:36:00,
2013-06-23 15:41:00,86.2,69.7,29.85,West,275,4.0,9.0,58,0.00,,,0.00,WeatherCatV1.11B39,2013-06-23 19:41:00,
2013-06-23 15:46:00,86.2,69.7,29.85,West,269,6.0,14.0,58,0.00,,,0.00,WeatherCatV1.11B39,2013-06-23 19:46:00,
2013-06-23 15:51:00,86.3,69.7,29.85,West,262,8.0,11.0,58,0.00,,,0.00,WeatherCatV1.11B39,2013-06-23 19:51:00,
2013-06-23 15:56:00,86.2,68.6,29.85,West,279,6.0,8.0,56,0.00,,,0.00,WeatherCatV1.11B39,2013-06-23 19:56:00,
2013-06-23 16:01:00,86.3,69.7,29.85,WNW,302,5.0,8.0,58,0.00,,,0.00,WeatherCatV1.11B39,2013-06-23 20:01:00,
2013-06-23 16:06:00,86.0,69.5,29.85,WNW,284,5.0,8.0,58,0.00,,,0.00,WeatherCatV1.11B39,2013-06-23 20:06:00,
2013-06-23 16:12:00,86.3,69.7,29.85,WSW,255,5.0,7.0,58,0.00,,,0.00,WeatherCatV1.11B39,2013-06-23 20:12:00,
2013-06-23 16:17:00,86.3,68.7,29.85,WSW,253,4.0,12.0,56,0.00,,,0.00,WeatherCatV1.11B39,2013-06-23 20:17:00,
2013-06-23 16:22:00,86.0,69.5,29.84,WNW,283,4.0,7.0,58,0.00,,,0.00,WeatherCatV1.11B39,2013-06-23 20:22:00,
2013-06-23 16:27:00,86.0,69.0,29.84,WNW,299,8.0,11.0,57,0.00,,,0.00,WeatherCatV1.11B39,2013-06-23 20:27:00,
2013-06-23 16:32:00,86.3,69.2,29.84,West,274,10.0,14.0,57,0.00,,,0.00,WeatherCatV1.11B39,2013-06-23 20:32:00,
2013-06-23 16:37:00,86.0,67.9,29.84,WSW,257,7.0,13.0,55,0.00,,,0.00,WeatherCatV1.11B39,2013-06-23 20:37:00,
2013-06-23 16:42:00,86.0,69.0,29.84,West,260,6.0,12.0,57,0.00,,,0.00,WeatherCatV1.11B39,2013-06-23 20:42:00,
2013-06-23 16:47:00,86.0,68.4,29.84,WSW,247,5.0,11.0,56,0.00,,,0.00,WeatherCatV1.11B39,2013-06-23 20:47:00,
2013-06-23 16:52:00,85.8,68.8,29.84,West,266,7.0,11.0,57,0.00,,,0.00,WeatherCatV1.11B39,2013-06-23 20:52:00,
2013-06-23 16:57:00,85.8,68.8,29.84,WNW,290,0.0,4.0,57,0.00,,,0.00,WeatherCatV1.11B39,2013-06-23 20:57:00,
2013-06-23 17:02:00,85.6,67.5,29.83,WSW,243,7.0,12.0,55,0.00,,,0.00,WeatherCatV1.11B39,2013-06-23 21:02:00,
2013-06-23 17:07:00,85.6,68.6,29.83,WSW,250,2.0,8.0,57,0.00,,,0.00,WeatherCatV1.11B39,2013-06-23 21:07:00,
2013-06-23 17:12:00,85.6,67.5,29.84,WSW,254,8.0,14.0,55,0.00,,,0.00,WeatherCatV1.11B39,2013-06-23 21:12:00,
2013-06-23 17:17:00,85.4,67.9,29.83,WSW,254,7.0,7.0,56,0.00,,,0.00,WeatherCatV1.11B39,2013-06-23 21:17:00,
2013-06-23 17:22:00,85.6,68.1,29.83,West,267,6.0,8.0,56,0.00,,,0.00,WeatherCatV1.11B39,2013-06-23 21:22:00,
2013-06-23 17:27:00,85.6,67.5,29.83,WSW,255,6.0,11.0,55,0.00,,,0.00,WeatherCatV1.11B39,2013-06-23 21:27:00,
2013-06-23 17:32:00,85.6,66.5,29.83,WSW,254,5.0,11.0,53,0.00,,,0.00,WeatherCatV1.11B39,2013-06-23 21:32:00,
2013-06-23 17:37:00,85.8,67.7,29.83,WNW,282,7.0,11.0,55,0.00,,,0.00,WeatherCatV1.11B39,2013-06-23 21:37:00,
2013-06-23 17:42:00,85.8,67.7,29.82,West,273,8.0,10.0,55,0.00,,,0.00,WeatherCatV1.11B39,2013-06-23 21:42:00,
2013-06-23 17:47:00,85.6,67.0,29.83,WSW,255,7.0,12.0,54,0.00,,,0.00,WeatherCatV1.11B39,2013-06-23 21:47:00,
2013-06-23 17:52:00,85.4,66.8,29.83,WSW,258,7.0,9.0,54,0.00,,,0.00,WeatherCatV1.11B39,2013-06-23 21:52:00,
2013-06-23 17:57:00,85.4,66.3,29.82,West,262,12.0,12.0,53,0.00,,,0.00,WeatherCatV1.11B39,2013-06-23 21:57:00,
2013-06-23 18:02:00,85.4,67.4,29.82,WSW,244,6.0,8.0,55,0.00,,,0.00,WeatherCatV1.11B39,2013-06-23 22:02:00,
2013-06-23 18:07:00,85.2,67.2,29.82,West,274,8.0,11.0,55,0.00,,,0.00,WeatherCatV1.11B39,2013-06-23 22:07:00,
2013-06-23 18:12:00,85.0,67.0,29.82,WSW,240,0.0,7.0,55,0.00,,,0.00,WeatherCatV1.11B39,2013-06-23 22:12:00,
2013-06-23 18:17:00,84.8,66.8,29.83,West,276,7.0,9.0,55,0.00,,,0.00,WeatherCatV1.11B39,2013-06-23 22:17:00,
2013-06-23 18:22:00,84.6,66.1,29.83,NW,316,8.0,11.0,54,0.00,,,0.00,WeatherCatV1.11B39,2013-06-23 22:22:00,
2013-06-23 18:27:00,84.6,67.1,29.83,WNW,299,7.0,18.0,56,0.00,,,0.00,WeatherCatV1.11B39,2013-06-23 22:27:00,
2013-06-23 18:32:00,84.4,67.0,29.83,WNW,285,6.0,10.0,56,0.00,,,0.00,WeatherCatV1.11B39,2013-06-23 22:32:00,
2013-06-23 18:37:00,84.4,67.0,29.83,West,281,9.0,12.0,56,0.00,,,0.00,WeatherCatV1.11B39,2013-06-23 22:37:00,
2013-06-23 18:42:00,84.4,67.0,29.83,West,266,7.0,11.0,56,0.00,,,0.00,WeatherCatV1.11B39,2013-06-23 22:42:00,
2013-06-23 18:47:00,84.2,66.8,29.84,West,267,12.0,12.0,56,0.00,,,0.00,WeatherCatV1.11B39,2013-06-23 22:47:00,
2013-06-23 18:52:00,84.0,67.6,29.83,West,260,4.0,7.0,58,0.00,,,0.00,WeatherCatV1.11B39,2013-06-23 22:52:00,
2013-06-23 18:57:00,83.9,68.0,29.83,WSW,238,0.0,4.0,59,0.00,,,0.00,WeatherCatV1.11B39,2013-06-23 22:57:00,
2013-06-23 19:02:00,83.4,67.0,29.83,West,275,1.0,13.0,58,0.00,,,0.00,WeatherCatV1.11B39,2013-06-23 23:02:00,
2013-06-23 19:07:00,83.3,67.4,29.83,SW,219,3.0,9.0,59,0.00,,,0.00,WeatherCatV1.11B39,2013-06-23 23:07:00,
2013-06-23 19:12:00,82.8,66.5,29.82,WNW,290,7.0,12.0,58,0.00,,,0.00,WeatherCatV1.11B39,2013-06-23 23:12:00,
2013-06-23 19:17:00,82.7,66.9,29.82,WSW,251,0.0,11.0,59,0.00,,,0.00,WeatherCatV1.11B39,2013-06-23 23:17:00,
2013-06-23 19:22:00,82.5,67.2,29.82,WNW,282,4.0,7.0,60,0.00,,,0.00,WeatherCatV1.11B39,2013-06-23 23:22:00,
2013-06-23 19:27:00,82.3,67.0,29.83,West,261,9.0,10.0,60,0.00,,,0.00,WeatherCatV1.11B39,2013-06-23 23:27:00,
2013-06-23 19:32:00,81.9,67.1,29.83,West,277,3.0,11.0,61,0.00,,,0.00,WeatherCatV1.11B39,2013-06-23 23:32:00,
2013-06-23 19:37:00,81.7,66.9,29.83,WSW,244,0.0,7.0,61,0.00,,,0.00,WeatherCatV1.11B39,2013-06-23 23:37:00,
2013-06-23 19:42:00,81.5,67.2,29.83,West,274,7.0,7.0,62,0.00,,,0.00,WeatherCatV1.11B39,2013-06-23 23:42:00,
2013-06-23 19:47:00,81.1,67.3,29.83,WSW,245,5.0,6.0,63,0.00,,,0.00,WeatherCatV1.11B39,2013-06-23 23:47:00,
2013-06-23 19:52:00,81.2,66.9,29.83,WSW,248,0.0,7.0,62,0.00,,,0.00,WeatherCatV1.11B39,2013-06-23 23:52:00,
2013-06-23 19:57:00,81.0,67.2,29.83,West,272,7.0,8.0,63,0.00,,,0.00,WeatherCatV1.11B39,2013-06-23 23:57:00,
2013-06-23 20:02:00,80.8,67.0,29.83,WSW,252,0.0,8.0,63,0.00,,,0.00,WeatherCatV1.11B39,2013-06-24 00:02:00,
2013-06-23 20:07:00,80.6,67.3,29.83,West,262,4.0,6.0,64,0.00,,,0.00,WeatherCatV1.11B39,2013-06-24 00:07:00,
2013-06-23 20:12:00,80.4,67.1,29.83,WSW,250,0.0,1.0,64,0.00,,,0.00,WeatherCatV1.11B39,2013-06-24 00:12:00,
2013-06-23 20:17:00,80.2,66.9,29.83,WSW,242,0.0,0.0,64,0.00,,,0.00,WeatherCatV1.11B39,2013-06-24 00:17:00,
2013-06-23 20:22:00,79.8,67.0,29.83,WSW,242,0.0,5.0,65,0.00,,,0.00,WeatherCatV1.11B39,2013-06-24 00:22:00,
2013-06-23 20:27:00,79.6,67.2,29.83,WSW,239,0.0,0.0,66,0.00,,,0.00,WeatherCatV1.11B39,2013-06-24 00:27:00,
2013-06-23 20:32:00,79.5,67.1,29.83,West,261,4.0,5.0,66,0.00,,,0.00,WeatherCatV1.11B39,2013-06-24 00:32:00,
2013-06-23 20:37:00,79.3,67.4,29.84,WSW,247,0.0,0.0,67,0.00,,,0.00,WeatherCatV1.11B39,2013-06-24 00:37:00,
2013-06-23 20:42:00,79.3,67.4,29.83,WSW,258,0.0,0.0,67,0.00,,,0.00,WeatherCatV1.11B39,2013-06-24 00:42:00,
2013-06-23 20:47:00,79.1,67.6,29.84,West,262,4.0,5.0,68,0.00,,,0.00,WeatherCatV1.11B39,2013-06-24 00:47:00,
2013-06-23 20:52:00,78.9,67.4,29.84,WSW,252,0.0,1.0,68,0.00,,,0.00,WeatherCatV1.11B39,2013-06-24 00:52:00,
2013-06-23 20:57:00,78.7,67.7,29.84,WSW,247,0.0,0.0,69,0.00,,,0.00,WeatherCatV1.11B39,2013-06-24 00:57:00,
2013-06-23 21:02:00,78.7,67.7,29.84,West,267,0.0,5.0,69,0.00,,,0.00,WeatherCatV1.11B39,2013-06-24 01:02:00,
2013-06-23 21:07:00,78.7,67.7,29.85,WSW,258,3.0,7.0,69,0.00,,,0.00,WeatherCatV1.11B39,2013-06-24 01:07:00,
2013-06-23 21:12:00,78.7,67.7,29.85,West,272,0.0,0.0,69,0.00,,,0.00,WeatherCatV1.11B39,2013-06-24 01:12:00,
2013-06-23 21:17:00,78.6,67.6,29.86,WSW,242,0.0,0.0,69,0.00,,,0.00,WeatherCatV1.11B39,2013-06-24 01:17:00,
2013-06-23 21:22:00,78.4,67.4,29.85,WSW,241,0.0,0.0,69,0.00,,,0.00,WeatherCatV1.11B39,2013-06-24 01:22:00,
2013-06-23 21:27:00,78.2,67.6,29.86,WSW,241,0.0,0.0,70,0.00,,,0.00,WeatherCatV1.11B39,2013-06-24 01:27:00,
2013-06-23 21:32:00,77.8,67.6,29.86,WSW,254,0.0,0.0,71,0.00,,,0.00,WeatherCatV1.11B39,2013-06-24 01:32:00,
2013-06-23 21:37:00,77.8,68.0,29.86,WNW,295,0.0,5.0,72,0.00,,,0.00,WeatherCatV1.11B39,2013-06-24 01:37:00,
2013-06-23 21:42:00,77.8,68.0,29.86,WSW,244,0.0,3.0,72,0.00,,,0.00,WeatherCatV1.11B39,2013-06-24 01:42:00,
2013-06-23 21:47:00,77.8,68.4,29.86,WSW,247,0.0,1.0,73,0.00,,,0.00,WeatherCatV1.11B39,2013-06-24 01:47:00,
2013-06-23 21:52:00,77.6,68.2,29.86,WSW,246,0.0,0.0,73,0.00,,,0.00,WeatherCatV1.11B39,2013-06-24 01:52:00,
2013-06-23 21:57:00,77.6,68.2,29.86,West,269,0.0,3.0,73,0.00,,,0.00,WeatherCatV1.11B39,2013-06-24 01:57:00,
2013-06-23 22:02:00,77.5,68.1,29.86,WSW,247,0.0,0.0,73,0.00,,,0.00,WeatherCatV1.11B39,2013-06-24 02:02:00,
2013-06-23 22:07:00,77.3,67.6,29.87,West,259,0.0,0.0,72,0.00,,,0.00,WeatherCatV1.11B39,2013-06-24 02:07:00,
2013-06-23 22:12:00,77.1,67.8,29.87,WSW,252,0.0,1.0,73,0.00,,,0.00,WeatherCatV1.11B39,2013-06-24 02:12:00,
2013-06-23 22:17:00,77.1,68.2,29.86,WSW,256,0.0,1.0,74,0.00,,,0.00,WeatherCatV1.11B39,2013-06-24 02:17:00,
2013-06-23 22:22:00,77.1,68.2,29.86,WSW,248,0.0,0.0,74,0.00,,,0.00,WeatherCatV1.11B39,2013-06-24 02:22:00,
2013-06-23 22:27:00,77.1,68.2,29.86,WSW,255,3.0,7.0,74,0.00,,,0.00,WeatherCatV1.11B39,2013-06-24 02:27:00,
2013-06-23 22:32:00,76.9,67.6,29.87,West,260,3.0,5.0,73,0.00,,,0.00,WeatherCatV1.11B39,2013-06-24 02:32:00,
2013-06-23 22:37:00,76.9,68.0,29.86,WSW,248,0.0,7.0,74,0.00,,,0.00,WeatherCatV1.11B39,2013-06-24 02:37:00,
2013-06-23 22:42:00,76.8,68.3,29.87,WSW,244,0.0,1.0,75,0.00,,,0.00,WeatherCatV1.11B39,2013-06-24 02:42:00,
2013-06-23 22:47:00,76.8,68.3,29.86,WSW,246,0.0,0.0,75,0.00,,,0.00,WeatherCatV1.11B39,2013-06-24 02:47:00,
2013-06-23 22:52:00,76.6,68.1,29.86,WSW,242,0.0,0.0,75,0.00,,,0.00,WeatherCatV1.11B39,2013-06-24 02:52:00,
2013-06-23 22:57:00,76.2,67.7,29.86,WSW,247,0.0,0.0,75,0.00,,,0.00,WeatherCatV1.11B39,2013-06-24 02:57:00,
2013-06-23 23:02:00,76.2,68.1,29.85,SW,234,0.0,0.0,76,0.00,,,0.00,WeatherCatV1.11B39,2013-06-24 03:02:00,
2013-06-23 23:07:00,76.1,68.0,29.86,NW,305,0.0,0.0,76,0.00,,,0.00,WeatherCatV1.11B39,2013-06-24 03:07:00,
2013-06-23 23:12:00,76.0,67.9,29.85,West,269,0.0,5.0,76,0.00,,,0.00,WeatherCatV1.11B39,2013-06-24 03:12:00,
2013-06-23 23:17:00,75.9,67.8,29.85,WSW,255,0.0,1.0,76,0.00,,,0.00,WeatherCatV1.11B39,2013-06-24 03:17:00,
2013-06-23 23:22:00,75.9,68.2,29.85,WSW,248,0.0,1.0,77,0.00,,,0.00,WeatherCatV1.11B39,2013-06-24 03:22:00,
2013-06-23 23:27:00,75.7,67.6,29.85,West,273,4.0,6.0,76,0.00,,,0.00,WeatherCatV1.11B39,2013-06-24 03:27:00,
2013-06-23 23:32:00,75.5,67.8,29.85,West,273,3.0,5.0,77,0.00,,,0.00,WeatherCatV1.11B39,2013-06-24 03:32:00,
2013-06-23 23:37:00,75.5,67.8,29.84,WSW,243,0.0,6.0,77,0.00,,,0.00,WeatherCatV1.11B39,2013-06-24 03:37:00,
2013-06-23 23:42:00,75.3,67.6,29.85,WSW,255,0.0,1.0,77,0.00,,,0.00,WeatherCatV1.11B39,2013-06-24 03:42:00,
2013-06-23 23:47:00,75.4,67.7,29.85,WSW,246,0.0,5.0,77,0.00,,,0.00,WeatherCatV1.11B39,2013-06-24 03:47:00,
2013-06-23 23:52:00,75.3,67.6,29.84,WSW,247,0.0,5.0,77,0.00,,,0.00,WeatherCatV1.11B39,2013-06-24 03:52:00,
2013-06-23 23:57:00,75.4,67.7,29.84,West,263,10.0,10.0,77,0.00,,,0.00,WeatherCatV1.11B39,2013-06-24 03:57:00,